Location: Binningen
(47.7924°N, 8.7261°E)
Time: 04:43:51
(UTC+00:00)

Iridium 4 Rocket - Pass Details

Date: 17 May 2021
Orbit: 583 x 906 km, 86.9° (Epoch: 14 June)

Event Time Altitude Azimuth Distance (km) Brightness Sun altitude
Exits shadow 20:28:48 - 182° (S) 2,904 6.1 -12.4°
Reaches altitude 10° 20:29:42 10° 182° (S) 2,564 5.8 -12.5°
Maximum altitude 20:35:35 87° 271° (W) 915 3.9 -13.1°
Drops below altitude 10° 20:41:31 10° 2° (N) 2,575 7.0 -13.7°
Sets 20:43:56 0° 3° (N) 3,497 7.7 -14.0°
